weather.gov     
National Weather Service

Regional Weather Roundup
NWS Homepage
This page is being discontinued on March 12, 2014.
The same data is available at this site. Please update your bookmarks.
Thank you, and we apologize for the inconvenience.
Please send an email to SR-SRH.Webmaster@noaa.gov with any concerns.


Current Version
Previous Version:    01  02  03  04  05  06  07  08  09  10  11  12  13  14  15  16  17  18  19  20  21  22  23  24  25  26  27  28  
[Printable]
786
ASUS45 KBOI 230610
RWRID
WEATHER ROUNDUP FOR IDAHO
NATIONAL WEATHER SERVICE BOISE ID
1200 AM MDT TUE SEP 23 2014

NOTE: "FAIR" INDICATES FEW OR NO CLOUDS BELOW 12000 FEET
WITH NO SIGNIFICANT WEATHER AND/OR OBSTRUCTIONS TO VISIBILITY

IDZ012-014-230700-
SOUTHWEST IDAHO


CITY           SKY/WX    TMP DP  RH WIND       PRES   REMARKS
BOISE          CLEAR     71  50  47 E6        30.01R
CALDWELL       PTCLDY    64  46  52 NW12G17   30.04R
$$

IDZ016-017-230700-
SOUTHCENTRAL IDAHO


CITY           SKY/WX    TMP DP  RH WIND       PRES   REMARKS
BURLEY         CLEAR     55  51  86 CALM      30.10R
JEROME         CLEAR     59  49  69 E8        30.10R
TWIN FALLS     CLEAR     60  48  64 S10       30.10R
$$

IDZ019>023-230700-
SOUTHEAST IDAHO


CITY           SKY/WX    TMP DP  RH WIND       PRES   REMARKS
IDAHO FALLS    PTCLDY    57  51  80 SW6       30.14R
POCATELLO      CLEAR     56  52  86 E3        30.13R
REXBURG        PTCLDY    54  52  93 CALM      30.14R
$$

IDZ006-010-011-018-031-032-230700-
CENTRAL IDAHO MOUNTAINS


CITY           SKY/WX    TMP DP  RH WIND       PRES   REMARKS
MCCALL         MOCLDY    53  45  74 CALM      30.12R
HAILEY         CLEAR     52  50  93 NW9       30.19S
STANLEY          N/A     45  41  86 S5        30.23R
SALMON         MOCLDY    59  50  72 CALM      30.07R
CHALLIS          N/A    N/A N/A N/A MISG      30.14R
$$

IDZ002-004-006-007-026-230700-
NORTHERN IDAHO


CITY           SKY/WX    TMP DP  RH WIND       PRES   REMARKS
LEWISTON       CLOUDY    75  54  47 W25       29.96R
LOWELL           N/A     61  55  81 CALM      29.96R
COEUR D`ALENE  MOCLDY    64  48  55 SE5       29.93R
MULLAN PASS    PTCLDY    56  42  59 NW7       30.12S
$$




U.S. Dept. of Commerce
NOAA National Weather Service
1325 East West Highway
Silver Spring, MD 20910
E-mail: w-nws.webmaster@noaa.gov
Page last modified: May 16, 2007
NATIONAL WEATHER SERVICE: for Safety, for Work, for Fun - FOR LIFE